User: anonymous   Login
Location: Camp Creek
(33.9000°N, 111.8167°W)
Time: 07:38:24
(UTC-07:00)
Language:

Cosmos 1656 - Orbit

View from above orbital plane
View from above orbital plane
View from above satellite
View from above satellite

Ground track
Ground track

The orbit data is extracted from the following two-line orbital elements,

1 15755U 85042A   16344.75410455 -.00000086  00000-0 -18019-4 0  9990
2 15755  71.1126  42.3479 0036138 341.8925  18.0911 14.20404517633791
Epoch (UTC): 09 December 2016 18:05:54
Eccentricity: 0.0036138
inclination: 71.1126°
perigee height: 798 km
apogee height: 850 km
right ascension of ascending node: 42.3479°
argument of perigee: 341.8925°
revolutions per day: 14.20404517
mean anomaly at epoch: 18.0911°
orbit number at epoch: 63379

The dashed part of the orbit path shows where the satellite is in the earth's shadow,  

DLR